TRANSIT 5B-2 DEB, 25156

Orbit data source: Space-Track

TRANSIT 5B-2 DEB, 25156 is space debris in LEO originally from a launch on Thu, 05 Dec 1963 UTC launched from the Air Force Western Test Range (AFWTR). Debris objects in space refer to the collection of defunct objects orbiting the Earth. Examples of debris include non-operational satellites, rocket bodies, and fragments generated from explosions, collisions, or faulty payload assembly.

Loading next visibility...
Identifier
25156, 1963-049N
Orbit
LEO
Country
Flag of USUS
Related business
Manufacturer
Unknown
Mission
Spacecraft
Bus & Motor
Unknown
Mass
Unknown
Launch date (UTC)
1963-12-05 (62 years ago)
Launch vehicle
Unknown
Launch site
Air Force Western Test Range (AFWTR)
Object type
Payload
Rocket body
Debris
Shape & HBR
Unknown shape, 0.3 m
Radar Cross Section
Medium (>0.1 m² and <1 m²)

Expand to show TLE details & history
Last TLE update: 8 hours ago

TLE from 8 hours ago
0 TRANSIT 5B-2 DEB
1 25156U 63049N   25290.94760823  .00000841  00000-0  11635-2 0  9999
2 25156  89.9179  73.9494 0041614  15.1065 114.0935 13.56979072366179
Epoch: 2025-10-17T22:44Z
TLE epoch observation values (Epoch: 2025-10-17T22:44:33.351Z)
Latitude
50.45941°
Longitude
-113.97417°
Altitude
1,067.549 km
Speed
7.317 km/s
True Right ascension
16h 55m 24s
True Declination
50° 17' 51"
Sunlit
Object was in daylight at epoch
Visualization orbit readout
Latitude
Unknown
Longitude
Unknown
Altitude
Unknown
Speed
Unknown
Apparent Right ascension
Unknown
Apparent Declination
Unknown
Sunlit
N/A
Visualization observer readout
Local Sidereal Time
01:14:05
Azimuth
Unknown
Elevation
Unknown
Doppler factor
Unknown
Orbital elements
Apogee altitude
1,074.616 km
Perigee altitude
1,012.845 km
Semi-major axis
7,421.868 km
Eccentricity
0.00416
Inclination
89.9179°
RAAN
73.9494°
Arg. of periapsis
15.1065°
True anomaly
114.52789°
Mean anomaly
114.0935°
Eccentric anomaly
114.31079°
Mean motion
3.39448 °/min
Orbital period
106.05 mins
BSTAR
0.0011635
Loading maneuver chart data...
Computing Atmospheric mass density...
Loading historical data...
Loading historical data...
Loading historical data...
Loading historical data...
Loading historical data...
Loading historical data...
Loading historical data...

Documentation

Showing up to 5 results
|